Home > Time Zones > World Clock > Weather > Belgium > Spa > Past weeks

Flag for Belgium Weather past 2 weeks in Spa, Belgium

Now
64 °F

Sunny.


Feels Like: 64 °F
Forecast: 53 / 74 °F
Wind: 3 mph from North

Location: Spa / La Sauveniere

Current Time: Jul 5, 2015 at 8:20:46 PM

Latest Report: Jul 5, 2015 at 7:00 PM


Visibility: 14 mi

Pressure: 30.02 "Hg

Humidity: 76%

Dew point: 56 °F

Location of SpaLocation

Historic Weather in Spa — Graph

°F

Spa temperature yesterday

Maximum temperature yesterday: 88 °F (at 3:00 PM)
Minimum temperature yesterday: 75 °F (at 11:00 PM)
Average temperature yesterday: 81 °F

Past Weeks' High & Low Weather Summary

 TemperatureHumidityPressure
High94 °F (Jul 2, 5:00 PM)97% (Jun 21, 8:00 AM)30.27 "Hg (Jun 21, 8:00 AM)
Low44 °F (Jun 23, 12:00 AM)29% (Jun 30, 6:00 PM)29.73 "Hg (Jun 22, 9:00 PM)
Average65 °F68%30.10 "Hg
* Reported Jun 20 7:00 PM — Jul 5 7:00 PM, Spa, Weather by CustomWeather, © 2015

Note: Actual official high and low records may vary slightly from our data, if they occured in-between our weather recording intervals... More about our weather records

Advertising

Spa weather history for previous 24 hours

 ConditionsComfort  
Time TempWeatherWind HumidityBarometerVisibility
7:00 PM
Sun, Jul 5
64 °FSunny.3 mph76%30.02 "Hg14 mi
6:00 PM66 °FOvercast.6 mph79%30.02 "Hg11 mi
5:00 PM75 °FOvercast.6 mph69%29.96 "Hg11 mi
4:00 PM81 °FSunny.5 mph62%29.91 "Hg16 mi
3:00 PM83 °FSunny.N/A62%29.90 "Hg15 mi
2:00 PM83 °FOvercast.3 mph60%29.94 "Hg13 mi
1:00 PM85 °FSunny.3 mph50%29.93 "Hg12 mi
12:00 PM83 °FSunny.3 mph57%29.95 "Hg14 mi
11:00 AM78 °FSunny.5 mph62%29.98 "Hg9 mi
10:00 AM71 °FSunny.6 mph76%30.02 "Hg12 mi
9:00 AM71 °FSunny.5 mph67%30.04 "Hg19 mi
8:00 AM66 °FSunny.3 mph76%30.06 "Hg22 mi
7:00 AM63 °FSunny.1 mph85%30.10 "Hg19 mi
6:00 AM64 °FSunny.1 mph75%30.10 "Hg25 mi
4:00 AM64 °FClear.1 mph76%30.14 "Hg25 mi
3:00 AM65 °FClear.2 mph73%30.15 "Hg28 mi
2:00 AM67 °FClear.2 mph77%30.16 "Hg17 mi
1:00 AM68 °FClear.2 mph75%30.16 "Hg17 mi
12:00 AM71 °FClear.3 mph72%30.15 "Hg16 mi
11:00 PM
Sat, Jul 4
75 °FClear.N/A72%30.12 "Hg18 mi
10:00 PM77 °FClear.No wind65%30.11 "Hg22 mi
9:00 PM79 °FSunny.1 mph55%30.10 "Hg22 mi
8:00 PM82 °FSunny.1 mph58%30.09 "Hg19 mi
Weather by CustomWeather, © 2015

See weather overviewHow to use our weather pages